[[{"header":{"parameterUnit":"m.s-1","parameterCategory":2,"la1":30.2991,"la2":30.254,"lo1":-89.0895,"lo2":-89.0444,"dy":0.0017,"dx":0.0017,"nx":28,"ny":28,"refTime":"2025-07-24T03:00:00:Z","depth":"0","parameterNumber":2,"parameterNumberName":"U-component_of_CURRENTS"},"data":[0,0,0,0,0,0,0,0,0,0,0,0,0,0,0,0,0,0,0,0,0,0,0,0,0,0,0,0,0,0,0,0,0,0,0,0,0,0,0,0,0,0,0,0,0,0,0,0,0,0,0,0,0,0,0,0,0,0,0.3334,0.3335,0,0.3379,0.3379,0.3379,0.3367,0.3366,0.3366,0.3365,0.3363,0.3363,0.3363,0,0,0,0,0,0,0,0,0,0,0,0,0,0.3251,0.3252,0.3334,0.3335,0.3336,0.3379,0.3379,0.3379,0.3367,0.3366,0.3366,0.3365,0.3362,0.3363,0.3363,0,0,0,0,0,0,0,0,0,0,0,0,0,0.3286,0.3252,0.3334,0.3338,0.3339,0.3379,0.3379,0.3379,0.3367,0.3366,0.3365,0.3365,0.3362,0.3363,0.3363,0.3383,0,0,0.3365,0.3366,0,0,0,0,0,0,0,0,0.3284,0.3289,0.3337,0.3338,0.3339,0.337,0.3349,0.338,0.3367,0.3352,0.3365,0.3364,0.3364,0.3364,0.3369,0.3383,0.3383,0.3365,0.3366,0.3366,0.3366,0,0,0,0,0,0,0,0.3282,0.3287,0.3348,0.3338,0.3339,0.3342,0.3346,0.3354,0.3358,0.3353,0.3354,0.3365,0.3364,0.3369,0.3369,0.3383,0.3365,0.3366,0.3366,0.3367,0.344,0.3441,0,0,0,0,0,0,0.3285,0.3285,0.3346,0.3349,0.3314,0.3344,0.3348,0.3358,0.3359,0.336,0.3366,0.3365,0.3368,0.3368,0.3369,0.3415,0.3366,0.3367,0.3367,0.3438,0.344,0.3442,0,0,0,0,0,0,0.3283,0.329,0.3345,0.3321,0.3329,0.3347,0.3357,0.3359,0.3369,0.337,0.3369,0.3375,0.3367,0.3368,0.3389,0.3414,0.3367,0.3367,0.3437,0.3439,0.3441,0.3492,0,0,0,0,0,0,0.328,0.3289,0.3297,0.3322,0.3331,0.3377,0.3359,0.3361,0.3379,0.3378,0.3377,0.3376,0.3367,0.3389,0.339,0.3414,0.3368,0.3435,0.3438,0.344,0.3489,0.3496,0.3503,0,0,0,0,0,0.3277,0.3293,0.3297,0.3305,0.3341,0.3379,0.3384,0.3391,0.338,0.3394,0.3395,0.3376,0.3408,0.3391,0.3392,0.3416,0.3433,0.3437,0.344,0.3486,0.3495,0.3502,0,0,0,0,0,0,0.3258,0.3294,0.3299,0.3323,0.3354,0.3379,0.3394,0.3398,0.341,0.3405,0.3396,0.3396,0.3426,0.3417,0.3398,0.3448,0.3418,0.3422,0.3452,0.3461,0.3468,0.3471,0.3368,0,0,0,0,0,0.326,0.3282,0.3316,0.3338,0.3354,0.3375,0.3391,0.3399,0.3415,0.3418,0.3418,0.3423,0.3443,0.3447,0.3459,0.3484,0.3497,0.3502,0.3509,0.3515,0.352,0.3566,0.3577,0.3454,0.3454,0.3454,0,0,0.3259,0.3283,0.3294,0.3336,0.3357,0.3386,0.3382,0.3413,0.3435,0.3417,0.344,0.3449,0.3457,0.3488,0.35,0.3481,0.356,0.3519,0.3524,0.3526,0.3571,0.3583,0.3593,0.3456,0.3456,0.3455,0,0,0.3268,0.329,0.3311,0.334,0.3381,0.34,0.3412,0.3442,0.3453,0.3483,0.3481,0.3507,0.3522,0.3539,0.3548,0.3602,0.3599,0.3606,0.3638,0.3683,0.3694,0.3703,0.3748,0.3761,0.3604,0.3604,0.3605,0,0.3265,0.3293,0.3324,0.3353,0.3377,0.3407,0.3433,0.3459,0.349,0.3509,0.3495,0.3549,0.3549,0.3602,0.3618,0.3618,0.3643,0.3604,0.3692,0.3701,0.371,0.3754,0.3767,0.3607,0.3607,0.3607,0.3606,0,0.329,0.3313,0.3332,0.3377,0.3409,0.3439,0.3482,0.3514,0.3529,0.3551,0.3604,0.3616,0.3647,0.3656,0.3651,0.3718,0.3718,0.3699,0.3669,0.3725,0.3768,0.3781,0.3612,0.361,0.361,0.3609,0,0,0.3272,0.3335,0.3338,0.3357,0.3421,0.3447,0.3503,0.3559,0.3594,0.3628,0.3675,0.3713,0.3724,0.3736,0.3743,0.3777,0.3859,0.3764,0.3765,0.3806,0.3968,0.3984,0.3999,0.3857,0.386,0.3861,0.3978,0,0.3278,0.332,0.3357,0.3399,0.3424,0.3478,0.3524,0.358,0.3628,0.3683,0.3723,0.3766,0.3755,0.3774,0.3813,0.3853,0.3894,0.3829,0.391,0.3912,0.3916,0.4015,0.3978,0.408,0.3991,0.3993,0.3994,0,0.3282,0.3312,0.3345,0.3404,0.3421,0.3451,0.3533,0.358,0.3677,0.3713,0.378,0.3817,0.3895,0.386,0.3971,0.3934,0.3957,0.3977,0.3982,0.3986,0.3952,0.4007,0.4107,0.4101,0.4014,0.4013,0.4011,0,0.324,0.33,0.332,0.3342,0.3418,0.3445,0.3489,0.3582,0.3646,0.3738,0.381,0.3882,0.3955,0.3992,0.4064,0.402,0.4183,0.4121,0.4158,0.4159,0.4138,0.4134,0.4237,0.419,0.4189,0.4189,0.4189,0,0.3226,0.3243,0.3297,0.331,0.3346,0.3408,0.3468,0.3529,0.3643,0.373,0.3821,0.3919,0.3996,0.4106,0.4111,0.4211,0.423,0.4195,0.4203,0.4156,0.4153,0.4151,0.4099,0.4193,0.4192,0.4192,0.4191,0,0.3181,0.3213,0.3243,0.3307,0.3325,0.3351,0.3458,0.3514,0.3631,0.3759,0.3801,0.3988,0.4131,0.422,0.431,0.4306,0.4278,0.4375,0.4324,0.4323,0.4309,0.4259,0.4104,0.3988,0.4421,0.4422,0.4423,0,0.3163,0.3171,0.3227,0.3243,0.3269,0.3321,0.3364,0.348,0.3557,0.3797,0.3861,0.4073,0.4206,0.4394,0.4427,0.4486,0.4344,0.4463,0.4358,0.4341,0.4291,0.4039,0.3932,0.4356,0.4356,0.4357,0.4357,0,0.3137,0.3152,0.3176,0.3203,0.3235,0.3281,0.3354,0.3416,0.3573,0.3715,0.3896,0.403,0.4278,0.4372,0.4503,0.4504,0.4309,0.447,0.4471,0.4277,0.399,0.3873,0.4245,0.436,0.436,0.4359,0.4359,0.4359,0.3113,0.3114,0.3137,0.3158,0.3187,0.3211,0.3217,0.3328,0.3441,0.3606,0.3811,0.3982,0.4294,0.4486,0.4467,0.4509,0.4321,0.444,0.4392,0.4147,0.3992,0.4379,0.4485,0.4485,0.4486,0.4486,0.4486,0,0.307,0.3071,0.3092,0.3089,0.3081,0.3128,0.3184,0.3177,0.325,0.3475,0.3625,0.3971,0.4188,0.4381,0.4579,0.4491,0.4213,0.4401,0.4072,0.3976,0.4393,0.4356,0.4418,0.4418,0.4418,0.4418,0.4418,0.4418,0.3043,0.3028,0.303,0.2978,0.2973,0.2916,0.2918,0.2932,0.3043,0.321,0.3397,0.3612,0.4096,0.4525,0.4594,0.4487,0.418,0.4017,0.3918,0.4315,0.4314,0.4314,0.4272,0.4316,0.4315,0.3382,0.3376,0.3371]},{"header":{"parameterUnit":"m.s-1","parameterCategory":2,"la1":30.2991,"la2":30.254,"lo1":-89.0895,"lo2":-89.0444,"dy":0.0017,"dx":0.0017,"nx":28,"ny":28,"refTime":"2025-07-24T03:00:00:Z","depth":"0","parameterNumber":3,"parameterNumberName":"V-component_of_CURRENTS"},"data":[0,0,0,0,0,0,0,0,0,0,0,0,0,0,0,0,0,0,0,0,0,0,0,0,0,0,0,0,0,0,0,0,0,0,0,0,0,0,0,0,0,0,0,0,0,0,0,0,0,0,0,0,0,0,0,0,0,0,0.0343,0.0343,0,0.0271,0.027,0.0269,0.0214,0.0214,0.0214,0.0214,0.0082,0.0079,0.0075,0,0,0,0,0,0,0,0,0,0,0,0,0,0.0366,0.0366,0.0343,0.0343,0.0342,0.0271,0.027,0.0268,0.0215,0.0214,0.0214,0.0214,0.0083,0.0079,0.0075,0,0,0,0,0,0,0,0,0,0,0,0,0,0.0329,0.0366,0.0344,0.0309,0.0305,0.0271,0.0269,0.0268,0.0215,0.0214,0.0214,0.0214,0.0084,0.0079,0.0075,0.0051,0,0,0.0059,0.0057,0,0,0,0,0,0,0,0,0.0331,0.0328,0.0315,0.0311,0.0307,0.0254,0.0229,0.0193,0.0215,0.0246,0.0214,0.0213,0.0136,0.0127,0.0111,0.0045,0.0039,0.0059,0.0056,0.0054,0.0052,0,0,0,0,0,0,0,0.0334,0.033,0.0312,0.0314,0.0309,0.0273,0.0268,0.0222,0.0191,0.0243,0.024,0.0236,0.0133,0.0116,0.0107,0.0037,0.0059,0.0055,0.0052,0.005,-0.0057,-0.0057,0,0,0,0,0,0,0.0352,0.0333,0.0314,0.031,0.0321,0.0273,0.0267,0.0269,0.0192,0.0181,0.0237,0.0234,0.0124,0.0113,0.0102,0.0085,0.0054,0.0049,0.0046,-0.0057,-0.0057,-0.0057,0,0,0,0,0,0,0.0353,0.0352,0.0317,0.0321,0.0315,0.0274,0.0276,0.0268,0.0254,0.0188,0.0176,0.0233,0.0124,0.0109,0.0071,0.0079,0.0047,0.0042,-0.0057,-0.0057,-0.0057,0.0041,0,0,0,0,0,0,0.0354,0.0353,0.0358,0.0323,0.0316,0.0309,0.0276,0.0267,0.0254,0.025,0.0181,0.0168,0.0122,0.0079,0.0067,0.0072,0.0039,-0.0058,-0.0057,-0.0057,0.0037,0.0044,0.005,0,0,0,0,0,0.0355,0.0373,0.0358,0.0356,0.0325,0.031,0.0303,0.027,0.0254,0.0255,0.0209,0.017,0.0071,0.0076,0.0061,0.0064,-0.0058,-0.0057,-0.0057,0.0034,0.0043,0.005,0,0,0,0,0,0,0.0384,0.0368,0.0352,0.0362,0.0341,0.0302,0.0301,0.0278,0.0242,0.0238,0.0173,0.0157,0.0125,0.0081,0.0087,0.0033,-0.0001,-0.0003,0.0074,0.0081,0.0088,0.0115,0.0035,0,0,0,0,0,0.0394,0.0402,0.0376,0.0383,0.0377,0.0339,0.0328,0.0309,0.0275,0.0259,0.0213,0.016,0.0113,0.0089,0.0042,0.0014,-0.0026,0.0005,0.0012,0.0017,0.0029,-0.0028,-0.0025,-0.0056,-0.0056,-0.0056,0,0,0.0406,0.0398,0.0401,0.0389,0.0369,0.0375,0.0332,0.0327,0.0328,0.025,0.0236,0.018,0.0111,0.0081,0.0063,0.0047,0.0007,0.0018,0.0024,0.0031,-0.0027,-0.0024,-0.0022,-0.0056,-0.0056,-0.0056,0,0,0.0442,0.0429,0.0449,0.0442,0.0427,0.0405,0.0409,0.0377,0.0359,0.0338,0.0281,0.0237,0.0169,0.0124,0.009,0.0103,0.0043,0.0082,0.0137,0.0083,0.0085,0.0086,0.0054,0.0051,0.0086,0.0086,0.0087,0,0.0456,0.0481,0.0452,0.0472,0.0476,0.0426,0.0452,0.0426,0.0386,0.0377,0.0347,0.0251,0.019,0.0153,0.0154,0.0119,0.0084,0.0118,0.0093,0.0093,0.0093,0.0059,0.0055,0.0091,0.0091,0.009,0.009,0,0.051,0.0528,0.0541,0.0551,0.0549,0.0564,0.0534,0.0525,0.0494,0.0463,0.0422,0.0338,0.0285,0.0252,0.0204,0.0175,0.015,0.0109,0.008,0.0103,0.0064,0.0059,0.0098,0.0096,0.0095,0.0094,0,0,0.0548,0.0575,0.058,0.0607,0.0598,0.0609,0.0611,0.0602,0.0613,0.0548,0.0552,0.0454,0.0407,0.0366,0.0296,0.0242,0.0208,0.0183,0.0178,0.0164,0.0103,0.0091,0.0083,0.0161,0.0161,0.016,0.0082,0,0.0599,0.0664,0.0658,0.0716,0.075,0.0717,0.0731,0.0713,0.0678,0.0667,0.0572,0.054,0.0451,0.0428,0.0361,0.0248,0.0196,0.0234,0.0071,0.0067,0.0064,0.0077,0.0118,0.0052,0.0076,0.0075,0.0075,0,0.0655,0.0697,0.0766,0.0818,0.083,0.0849,0.087,0.0876,0.0835,0.0805,0.0748,0.0677,0.0595,0.0514,0.034,0.0369,0.025,0.0154,0.0148,0.01,0.0045,0.0027,0.004,-0.0137,0.0066,0.0066,0.0067,0,0.0708,0.0773,0.0836,0.0852,0.0895,0.0918,0.0933,0.0916,0.0947,0.0891,0.091,0.0781,0.0742,0.0569,0.0377,0.0356,0.0187,0.0131,0.001,0.0008,-0.0008,-0.0009,-0.0174,0.0009,0.0009,0.0009,0.0009,0,0.0771,0.0823,0.0868,0.0905,0.0991,0.0988,0.1063,0.1048,0.106,0.1124,0.099,0.1011,0.0753,0.0632,0.0427,0.0217,0.0223,0.0029,-0.0014,0.0028,0.0031,-0.0166,-0.0302,0.0006,0.0007,0.0007,0.0008,0,0.0821,0.0845,0.093,0.0993,0.1018,0.1079,0.1168,0.1229,0.1214,0.1294,0.1291,0.1187,0.1026,0.0772,0.0498,0.0307,-0.0032,0.0004,0.0084,0.0052,-0.023,-0.0361,-0.057,-0.0712,-0.0139,-0.014,-0.014,0,0.0855,0.0901,0.0999,0.1064,0.1096,0.1188,0.1265,0.1292,0.1374,0.1419,0.1479,0.1354,0.1307,0.0903,0.0523,0.0171,-0.0047,-0.0031,-0.0076,-0.0232,-0.0411,-0.0473,-0.0584,-0.0055,-0.0055,-0.0055,-0.0055,0,0.0929,0.0956,0.103,0.1159,0.1252,0.138,0.1491,0.1583,0.1645,0.1725,0.18,0.1766,0.1393,0.1065,0.0571,0.0299,-0.0169,-0.004,-0.0232,-0.0382,-0.0432,-0.0591,-0.0008,-0.0054,-0.0055,-0.0055,-0.0055,-0.0055,0.0984,0.1051,0.1146,0.1271,0.139,0.1557,0.1674,0.182,0.198,0.2127,0.2069,0.2105,0.1618,0.0951,0.0518,-0.0146,-0.0189,-0.0315,-0.0466,-0.0514,-0.0646,-0.0048,-0.0128,-0.0128,-0.0129,-0.0129,-0.013,0,0.1055,0.1133,0.1256,0.1411,0.1558,0.1607,0.1822,0.196,0.2174,0.2347,0.2423,0.2321,0.1665,0.0999,0.0087,-0.0431,-0.0655,-0.0714,-0.0802,-0.0906,-0.0384,-0.0373,-0.0472,-0.0472,-0.0472,-0.0472,-0.0471,-0.0471,0.1095,0.1218,0.1283,0.1524,0.1641,0.1849,0.198,0.2186,0.2369,0.2642,0.2785,0.2858,0.2496,0.0727,-0.0445,-0.0791,-0.1196,-0.1248,-0.1487,-0.1121,-0.1094,-0.1069,-0.1088,-0.1335,-0.1337,-0.1907,-0.1913,-0.1918]}],[{"header":{"parameterUnit":"m.s-1","parameterCategory":2,"la1":30.2991,"la2":30.254,"lo1":-89.0895,"lo2":-89.0444,"dy":0.0017,"dx":0.0017,"nx":28,"ny":28,"refTime":"2025-07-24T03:00:00:Z","depth":"2","parameterNumber":2,"parameterNumberName":"U-component_of_CURRENTS"},"data":[0,0,0,0,0,0,0,0,0,0,0,0,0,0,0,0,0,0,0,0,0,0,0,0,0,0,0,0,0,0,0,0,0,0,0,0,0,0,0,0,0,0,0,0,0,0,0,0,0,0,0,0,0,0,0,0,0,0,0.327,0.3271,0,0.3314,0.3314,0.3314,0.3306,0.3305,0.3305,0.3304,0.3305,0.3306,0.3306,0,0,0,0,0,0,0,0,0,0,0,0,0,0.3189,0.3191,0.327,0.3271,0.3272,0.3314,0.3314,0.3314,0.3306,0.3305,0.3305,0.3304,0.3305,0.3306,0.3306,0,0,0,0,0,0,0,0,0,0,0,0,0,0.3224,0.3191,0.327,0.3276,0.3277,0.3314,0.3314,0.3314,0.3306,0.3305,0.3305,0.3304,0.3305,0.3306,0.3306,0.3323,0,0,0.3308,0.3308,0,0,0,0,0,0,0,0,0.3222,0.3227,0.3274,0.3275,0.3277,0.3307,0.3286,0.3316,0.3306,0.3291,0.3304,0.3304,0.3305,0.3306,0.331,0.3323,0.3323,0.3308,0.3309,0.3309,0.3309,0,0,0,0,0,0,0,0.322,0.3225,0.3283,0.3275,0.3277,0.328,0.3283,0.3292,0.3297,0.3292,0.3292,0.3304,0.3305,0.331,0.331,0.3323,0.3308,0.3309,0.3309,0.3309,0.3383,0.3384,0,0,0,0,0,0,0.3223,0.3223,0.3282,0.3285,0.3252,0.3282,0.3286,0.3295,0.3298,0.3299,0.3304,0.3303,0.3309,0.3309,0.331,0.3358,0.3309,0.331,0.331,0.3381,0.3383,0.3385,0,0,0,0,0,0,0.3221,0.3228,0.328,0.3258,0.3265,0.3284,0.3294,0.3296,0.3308,0.3309,0.3308,0.3315,0.3308,0.3309,0.3332,0.3356,0.331,0.331,0.3379,0.3382,0.3384,0.3435,0,0,0,0,0,0,0.3218,0.3226,0.3235,0.3258,0.3267,0.3312,0.3295,0.3297,0.3317,0.3316,0.3318,0.3317,0.3308,0.3331,0.3332,0.3357,0.3311,0.3377,0.338,0.3383,0.3432,0.3439,0.3446,0,0,0,0,0,0.3215,0.323,0.3235,0.3242,0.3277,0.3314,0.3319,0.3327,0.3318,0.3332,0.3334,0.3317,0.335,0.3333,0.3334,0.3359,0.3376,0.338,0.3383,0.3429,0.3438,0.3445,0,0,0,0,0,0,0.3197,0.3232,0.3237,0.3261,0.3291,0.3314,0.333,0.3335,0.3348,0.3345,0.3336,0.3336,0.3368,0.3359,0.334,0.339,0.3361,0.3365,0.3395,0.3404,0.341,0.3414,0.3311,0,0,0,0,0,0.32,0.3221,0.3254,0.3274,0.3291,0.3312,0.3327,0.3336,0.3352,0.3357,0.3358,0.3364,0.3384,0.3389,0.3401,0.3426,0.3438,0.3445,0.3452,0.3457,0.3463,0.3507,0.3519,0.3396,0.3396,0.3396,0,0,0.3198,0.3222,0.3233,0.3273,0.3294,0.3323,0.3319,0.335,0.3372,0.3356,0.338,0.339,0.3398,0.3429,0.3442,0.3424,0.3502,0.3462,0.3467,0.3469,0.3512,0.3524,0.3534,0.3399,0.3398,0.3398,0,0,0.3208,0.323,0.325,0.3278,0.3319,0.3337,0.3349,0.338,0.3392,0.3422,0.3421,0.3447,0.3464,0.348,0.349,0.3543,0.3541,0.3547,0.3581,0.3624,0.3635,0.3644,0.3687,0.37,0.3547,0.3547,0.3547,0,0.3206,0.3232,0.3262,0.3291,0.3314,0.3345,0.337,0.3396,0.3428,0.3447,0.3435,0.3489,0.349,0.3542,0.3559,0.3559,0.3583,0.3546,0.3633,0.3642,0.3651,0.3693,0.3706,0.355,0.3549,0.3549,0.3549,0,0.3229,0.3252,0.3271,0.3314,0.3346,0.3376,0.3418,0.345,0.3467,0.3489,0.3543,0.3556,0.3587,0.3597,0.3592,0.3659,0.3659,0.364,0.361,0.3666,0.3707,0.372,0.3554,0.3553,0.3552,0.3551,0,0,0.3213,0.3273,0.3277,0.3296,0.3358,0.3383,0.3439,0.3494,0.353,0.3565,0.3612,0.3651,0.3663,0.3676,0.3683,0.3717,0.3798,0.3705,0.3706,0.3745,0.3905,0.3914,0.3928,0.3797,0.3799,0.3801,0.3914,0,0.3219,0.3259,0.3294,0.3336,0.336,0.3414,0.3459,0.3515,0.3563,0.3619,0.3659,0.3703,0.3694,0.3714,0.3753,0.3792,0.3832,0.3769,0.3847,0.3849,0.3848,0.3944,0.3611,0.3685,0.3926,0.3928,0.393,0,0.3222,0.3251,0.3284,0.3341,0.3358,0.3388,0.347,0.3516,0.3613,0.3649,0.3717,0.3754,0.3832,0.3799,0.3908,0.3872,0.3894,0.3914,0.3919,0.3916,0.3883,0.3666,0.3699,0.3951,0.3949,0.3948,0.3946,0,0.3181,0.3239,0.326,0.3281,0.3355,0.3383,0.3427,0.352,0.3582,0.3675,0.3747,0.3819,0.3892,0.3928,0.3999,0.3956,0.4114,0.4055,0.4085,0.4085,0.3812,0.3786,0.4122,0.4122,0.4121,0.4121,0.4121,0,0.3168,0.3184,0.3238,0.3251,0.3287,0.3348,0.3409,0.347,0.3583,0.3668,0.3759,0.3854,0.3932,0.4039,0.4045,0.4138,0.416,0.4121,0.4127,0.3824,0.3799,0.4025,0.4012,0.4125,0.4124,0.4124,0.4123,0,0.3124,0.3156,0.3185,0.3249,0.3267,0.3294,0.3401,0.3456,0.3573,0.3697,0.374,0.3922,0.4061,0.4148,0.4236,0.4229,0.4278,0.4293,0.3947,0.3913,0.4199,0.4188,0.4328,0.433,0.4331,0.4332,0.4333,0,0.3106,0.3114,0.317,0.3187,0.3214,0.3266,0.331,0.3424,0.3499,0.3733,0.3795,0.4001,0.4123,0.4303,0.4285,0.4327,0.4365,0.4062,0.3919,0.4234,0.4226,0.4213,0.42,0.3569,0.3563,0.3559,0.3555,0,0.308,0.3096,0.3119,0.3149,0.3183,0.3225,0.3298,0.3357,0.351,0.3641,0.3814,0.3937,0.4134,0.4059,0.4164,0.4118,0.4026,0.398,0.4395,0.3594,0.3534,0.3522,0.353,0.3516,0.352,0.3522,0.3525,0.3526,0.3058,0.3052,0.3077,0.3104,0.3132,0.315,0.3153,0.3253,0.3351,0.3475,0.3677,0.374,0.3834,0.3822,0.3733,0.3649,0.3917,0.3728,0.3733,0.3745,0.3664,0.3612,0.3592,0.3596,0.36,0.3603,0.3606,0,0.3,0.3002,0.3031,0.3024,0.3007,0.3069,0.3116,0.308,0.3125,0.3273,0.3375,0.3182,0.32,0.3264,0.3099,0.3151,0.3007,0.3011,0.2786,0.2833,0.2873,0.2736,0.2424,0.242,0.2416,0.2412,0,0,0.2963,0.2948,0.2953,0.2895,0.2894,0.2827,0.2825,0.2792,0.283,0.28,0.2801,0.3037,0.3204,0.2764,0.2745,0.2558,0.2643,0.2443,0.3407,0.3191,0.3224,0.3329,0.3182,0,0,0,0,0]},{"header":{"parameterUnit":"m.s-1","parameterCategory":2,"la1":30.2991,"la2":30.254,"lo1":-89.0895,"lo2":-89.0444,"dy":0.0017,"dx":0.0017,"nx":28,"ny":28,"refTime":"2025-07-24T03:00:00:Z","depth":"2","parameterNumber":3,"parameterNumberName":"V-component_of_CURRENTS"},"data":[0,0,0,0,0,0,0,0,0,0,0,0,0,0,0,0,0,0,0,0,0,0,0,0,0,0,0,0,0,0,0,0,0,0,0,0,0,0,0,0,0,0,0,0,0,0,0,0,0,0,0,0,0,0,0,0,0,0,0.0283,0.0282,0,0.0211,0.021,0.0209,0.0156,0.0156,0.0156,0.0156,0.0026,0.0023,0.002,0,0,0,0,0,0,0,0,0,0,0,0,0,0.0304,0.0304,0.0283,0.0282,0.0282,0.0212,0.021,0.0209,0.0157,0.0156,0.0156,0.0156,0.0027,0.0023,0.0019,0,0,0,0,0,0,0,0,0,0,0,0,0,0.0267,0.0304,0.0283,0.0249,0.0245,0.0212,0.021,0.0209,0.0157,0.0156,0.0156,0.0156,0.0028,0.0024,0.0019,-0.0005,0,0,0.0004,0.0002,0,0,0,0,0,0,0,0,0.027,0.0266,0.0255,0.0251,0.0247,0.0195,0.017,0.0135,0.0157,0.0187,0.0156,0.0155,0.0079,0.007,0.0054,-0.0011,-0.0016,0.0004,0.0001,-0.0001,-0.0003,0,0,0,0,0,0,0,0.0272,0.0269,0.0252,0.0254,0.0249,0.0213,0.0208,0.0163,0.0133,0.0185,0.0181,0.0178,0.0076,0.0059,0.0051,-0.0018,0.0004,-0.0001,-0.0004,-0.0006,-0.011,-0.011,0,0,0,0,0,0,0.0291,0.0272,0.0254,0.025,0.0261,0.0214,0.0208,0.021,0.0134,0.0124,0.0178,0.0176,0.0068,0.0057,0.0046,0.003,-0.0001,-0.0006,-0.0009,-0.011,-0.011,-0.011,0,0,0,0,0,0,0.0291,0.029,0.0257,0.0261,0.0254,0.0215,0.0217,0.0209,0.0196,0.0131,0.0118,0.0175,0.0067,0.0053,0.0016,0.0024,-0.0008,-0.0013,-0.0111,-0.011,-0.011,-0.0013,0,0,0,0,0,0,0.0292,0.0291,0.0296,0.0262,0.0255,0.025,0.0217,0.0208,0.0195,0.0191,0.0124,0.0111,0.0066,0.0024,0.0011,0.0017,-0.0016,-0.0111,-0.0111,-0.011,-0.0016,-0.0009,-0.0003,0,0,0,0,0,0.0293,0.0311,0.0297,0.0295,0.0265,0.0251,0.0243,0.0211,0.0196,0.0197,0.0152,0.0113,0.0016,0.002,0.0006,0.001,-0.0111,-0.0111,-0.011,-0.0019,-0.0011,-0.0003,0,0,0,0,0,0,0.0322,0.0306,0.0291,0.0302,0.0281,0.0243,0.0242,0.022,0.0185,0.0181,0.0116,0.0101,0.007,0.0026,0.0032,-0.0021,-0.0055,-0.0057,0.002,0.0027,0.0033,0.006,-0.0021,0,0,0,0,0,0.0333,0.034,0.0315,0.0322,0.0317,0.028,0.0269,0.0251,0.0217,0.0202,0.0156,0.0104,0.0058,0.0034,-0.0013,-0.0039,-0.008,-0.0048,-0.0041,-0.0036,-0.0025,-0.0082,-0.0079,-0.0109,-0.0109,-0.0109,0,0,0.0345,0.0337,0.034,0.0329,0.0309,0.0316,0.0273,0.0268,0.027,0.0192,0.0179,0.0125,0.0056,0.0027,0.0009,-0.0007,-0.0047,-0.0035,-0.0029,-0.0022,-0.0081,-0.0078,-0.0076,-0.0109,-0.0109,-0.0109,0,0,0.0381,0.0369,0.0389,0.0382,0.0367,0.0345,0.035,0.0319,0.0301,0.0281,0.0225,0.0182,0.0114,0.007,0.0037,0.0049,-0.0011,0.003,0.0084,0.0029,0.0031,0.0033,-0.0001,-0.0004,0.0034,0.0034,0.0034,0,0.0395,0.042,0.0391,0.0411,0.0416,0.0367,0.0393,0.0367,0.0328,0.0318,0.029,0.0195,0.0136,0.0098,0.0101,0.0065,0.003,0.0064,0.0039,0.004,0.0039,0.0004,-0.0,0.0039,0.0038,0.0038,0.0037,0,0.0448,0.0467,0.048,0.049,0.0488,0.0503,0.0474,0.0465,0.0435,0.0404,0.0364,0.0282,0.0229,0.0197,0.015,0.0121,0.0096,0.0056,0.0026,0.0049,0.0009,0.0004,0.0045,0.0044,0.0042,0.0041,0,0,0.0487,0.0514,0.0519,0.0545,0.0537,0.0547,0.0549,0.054,0.0551,0.0488,0.0491,0.0396,0.035,0.0309,0.024,0.0187,0.0152,0.0129,0.0124,0.0108,0.0046,0.0031,0.0023,0.0106,0.0106,0.0105,0.0024,0,0.0538,0.0602,0.0595,0.0653,0.0686,0.0654,0.0667,0.065,0.0615,0.0603,0.051,0.0478,0.0393,0.037,0.0304,0.0191,0.014,0.0179,0.0015,0.001,0.0005,0.0016,0.0011,-0.0062,0.0018,0.0017,0.0016,0,0.0593,0.0634,0.0701,0.0752,0.0764,0.0784,0.0803,0.0808,0.0767,0.0738,0.0681,0.0612,0.053,0.0452,0.0279,0.0309,0.0191,0.0096,0.009,0.0039,-0.0015,-0.0077,-0.0076,0.0006,0.0007,0.0007,0.0008,0,0.0645,0.0709,0.077,0.0787,0.0828,0.0851,0.0865,0.0848,0.0877,0.0821,0.0839,0.0712,0.0673,0.0503,0.0313,0.0294,0.0123,0.0069,-0.0053,-0.0055,-0.0111,-0.0116,-0.0053,-0.0053,-0.0052,-0.0052,-0.0052,0,0.0707,0.0758,0.0802,0.0838,0.0923,0.092,0.0992,0.0977,0.0988,0.1047,0.0918,0.0934,0.0683,0.0561,0.036,0.015,0.0157,-0.0035,-0.0078,-0.0076,-0.0077,-0.0064,-0.0064,-0.0055,-0.0055,-0.0054,-0.0053,0,0.0756,0.0779,0.0862,0.0924,0.0949,0.1008,0.1094,0.1152,0.1137,0.1212,0.1209,0.1103,0.0942,0.0693,0.0422,0.0234,0.0014,-0.0066,-0.0033,-0.007,-0.0139,-0.0133,-0.0209,-0.021,-0.0211,-0.0212,-0.0212,0,0.0788,0.0833,0.093,0.0993,0.1025,0.1115,0.1189,0.1215,0.1291,0.133,0.1385,0.1259,0.1204,0.0803,0.0419,0.007,0.0029,-0.0155,-0.0202,-0.0121,-0.0156,-0.0148,-0.0142,-0.0237,-0.0238,-0.0239,-0.024,0,0.0859,0.0885,0.0957,0.1085,0.1176,0.1296,0.1403,0.1489,0.1546,0.1616,0.1679,0.1638,0.1261,0.089,0.0401,0.0151,-0.0105,-0.0179,-0.0116,-0.0187,-0.0153,-0.0185,-0.0177,-0.0246,-0.0245,-0.0245,-0.0244,-0.0244,0.0911,0.097,0.1063,0.1191,0.1305,0.1457,0.157,0.1695,0.1837,0.1936,0.1886,0.1816,0.1392,0.0753,0.0321,-0.0146,-0.0118,-0.029,-0.0286,-0.0282,-0.0262,-0.023,-0.0333,-0.0332,-0.0332,-0.0332,-0.0332,0,0.0964,0.1039,0.1166,0.131,0.1444,0.1507,0.1705,0.1806,0.1983,0.2063,0.2094,0.1685,0.1272,0.0799,0.0105,-0.0289,-0.0339,-0.0417,-0.0394,-0.0385,-0.0378,-0.0362,-0.046,-0.0461,-0.0462,-0.0463,0,0,0.0989,0.1107,0.1175,0.1399,0.1515,0.1707,0.1832,0.1973,0.2064,0.2123,0.2083,0.1965,0.1409,0.089,0.0331,-0.0058,-0.013,-0.0147,-0.0007,0.0093,0.0105,-0.0276,-0.0236,0,0,0,0,0]}],[{"header":{"parameterUnit":"m.s-1","parameterCategory":2,"la1":30.2991,"la2":30.254,"lo1":-89.0895,"lo2":-89.0444,"dy":0.0017,"dx":0.0017,"nx":28,"ny":28,"refTime":"2025-07-24T03:00:00:Z","depth":"4","parameterNumber":2,"parameterNumberName":"U-component_of_CURRENTS"},"data":[0,0,0,0,0,0,0,0,0,0,0,0,0,0,0,0,0,0,0,0,0,0,0,0,0,0,0,0,0,0,0,0,0,0,0,0,0,0,0,0,0,0,0,0,0,0,0,0,0,0,0,0,0,0,0,0,0,0,0.2031,0.2033,0,0.2124,0.2125,0.2126,0.2199,0.22,0.2201,0.2202,0.231,0.2312,0.2314,0,0,0,0,0,0,0,0,0,0,0,0,0,0.192,0.1922,0.2031,0.2033,0.2034,0.2124,0.2125,0.2126,0.2199,0.22,0.2201,0.2203,0.231,0.2312,0.2314,0,0,0,0,0,0,0,0,0,0,0,0,0,0.1984,0.1922,0.2031,0.2083,0.2089,0.2123,0.2125,0.2126,0.2199,0.22,0.2202,0.2203,0.2309,0.2312,0.2315,0.2305,0,0,0.2324,0.2325,0,0,0,0,0,0,0,0,0.198,0.1988,0.2074,0.2079,0.2086,0.2153,0.2126,0.2188,0.2199,0.2155,0.2202,0.2204,0.226,0.2267,0.2278,0.231,0.2315,0.2324,0.2326,0.2327,0.2328,0,0,0,0,0,0,0,0.1976,0.1984,0.2066,0.2075,0.2083,0.2103,0.2113,0.2137,0.2197,0.2159,0.2165,0.2178,0.2263,0.2275,0.2281,0.2317,0.2324,0.2327,0.2329,0.233,0.2488,0.2491,0,0,0,0,0,0,0.1967,0.198,0.2063,0.2069,0.2038,0.2103,0.2115,0.2129,0.2197,0.2209,0.2177,0.2181,0.2269,0.2277,0.2285,0.2405,0.2327,0.233,0.2332,0.2486,0.2489,0.2491,0,0,0,0,0,0,0.1964,0.1974,0.2059,0.2028,0.2041,0.2104,0.2119,0.213,0.2187,0.221,0.2223,0.2228,0.227,0.2281,0.2354,0.2405,0.2332,0.2334,0.2483,0.2487,0.249,0.2564,0,0,0,0,0,0,0.1961,0.1972,0.1999,0.2028,0.2042,0.2109,0.2118,0.2131,0.2191,0.2199,0.2258,0.2266,0.2272,0.2349,0.2357,0.2408,0.2337,0.248,0.2485,0.2489,0.2559,0.257,0.258,0,0,0,0,0,0.1956,0.198,0.1999,0.2011,0.207,0.211,0.2121,0.2168,0.2193,0.2224,0.2272,0.2267,0.2383,0.2354,0.2362,0.2415,0.2478,0.2483,0.2489,0.2554,0.2568,0.2579,0,0,0,0,0,0,0.1947,0.199,0.2013,0.205,0.2093,0.2125,0.2164,0.2191,0.2252,0.2276,0.2295,0.2307,0.2391,0.2393,0.236,0.2475,0.2431,0.2438,0.2478,0.2491,0.2501,0.2497,0.2339,0,0,0,0,0,0.1955,0.199,0.2028,0.2065,0.209,0.2135,0.2166,0.2199,0.2245,0.2276,0.2318,0.2365,0.241,0.2444,0.2479,0.2539,0.2542,0.2581,0.2591,0.26,0.2603,0.2652,0.2667,0.2509,0.2509,0.2509,0,0,0.1962,0.1993,0.2014,0.2067,0.2107,0.2147,0.2159,0.2219,0.2266,0.2276,0.2369,0.2406,0.2435,0.2508,0.2546,0.2523,0.2649,0.2607,0.2614,0.2612,0.2659,0.2675,0.2688,0.2513,0.2512,0.2512,0,0,0.1978,0.2023,0.2054,0.2093,0.2159,0.2187,0.2214,0.2274,0.2322,0.2399,0.2426,0.2494,0.2562,0.2596,0.2618,0.2705,0.2702,0.2728,0.278,0.2828,0.2841,0.2852,0.2882,0.2896,0.2734,0.2734,0.2734,0,0.199,0.2029,0.2071,0.211,0.2151,0.2209,0.2252,0.2303,0.2385,0.243,0.2444,0.2572,0.26,0.2684,0.2721,0.2729,0.2752,0.2727,0.2841,0.2852,0.2862,0.289,0.2904,0.2738,0.2738,0.2737,0.2737,0,0.2014,0.2065,0.209,0.2159,0.2207,0.2259,0.2325,0.2396,0.2461,0.2507,0.2622,0.2668,0.2743,0.2769,0.2775,0.2873,0.2864,0.2846,0.2804,0.2882,0.2907,0.292,0.2744,0.2743,0.2741,0.274,0,0,0.1987,0.2087,0.2101,0.2144,0.2241,0.2278,0.2373,0.2462,0.2533,0.2624,0.2713,0.2803,0.2843,0.2871,0.2899,0.2944,0.304,0.2938,0.2938,0.2959,0.315,0.2965,0.2961,0.3051,0.3053,0.3055,0.314,0,0.1999,0.207,0.2123,0.2208,0.2251,0.234,0.2417,0.2512,0.26,0.2702,0.2778,0.2872,0.2878,0.2933,0.2984,0.3033,0.3078,0.3019,0.3078,0.308,0.2898,0.2971,0.3064,0.3149,0.3152,0.3154,0.3156,0,0.1995,0.2049,0.2126,0.2237,0.2266,0.2333,0.2472,0.255,0.2695,0.2766,0.2876,0.294,0.3053,0.3032,0.3155,0.3125,0.3149,0.3168,0.3171,0.2977,0.2918,0.3055,0.3179,0.3177,0.3175,0.3174,0.3173,0,0.1939,0.2048,0.2113,0.2152,0.2285,0.2354,0.2437,0.2578,0.2667,0.2822,0.2911,0.3027,0.3125,0.3173,0.324,0.3214,0.335,0.3308,0.3159,0.3147,0.3254,0.3241,0.3378,0.3378,0.3378,0.3378,0.3378,0,0.1909,0.1968,0.2101,0.2137,0.2231,0.2335,0.2456,0.2554,0.2714,0.2812,0.2951,0.3042,0.3172,0.3267,0.3279,0.3266,0.3388,0.3176,0.3158,0.3285,0.3274,0.3263,0.3249,0.3381,0.338,0.338,0.3379,0,0.1835,0.1924,0.2007,0.2153,0.2208,0.2279,0.2467,0.2537,0.2714,0.2851,0.2914,0.3107,0.3212,0.331,0.34,0.3313,0.331,0.3272,0.3419,0.3407,0.3061,0.305,0.3093,0.3087,0.3082,0.3078,0.3074,0,0.1801,0.1834,0.1998,0.2047,0.2124,0.2251,0.2324,0.2514,0.2589,0.2857,0.2896,0.3094,0.319,0.3177,0.3278,0.3285,0.3248,0.3221,0.3113,0.3054,0.3034,0.303,0.3026,0.3066,0.3065,0.3064,0.3063,0,0.1722,0.1797,0.1862,0.1961,0.205,0.2138,0.2264,0.2314,0.252,0.2722,0.2812,0.2881,0.3001,0.3052,0.3099,0.3092,0.3215,0.3168,0.3177,0.3075,0.3023,0.3007,0.3009,0.3046,0.3048,0.305,0.3051,0,0.1665,0.1684,0.177,0.1847,0.1945,0.1977,0.2071,0.2159,0.227,0.2557,0.258,0.2783,0.2966,0.2955,0.2989,0.2979,0.2918,0.2801,0.2827,0.2847,0.2726,0.2622,0.2513,0,0,0,0,0,0.1587,0.1587,0.1643,0.1711,0.1796,0.1861,0.1998,0.2094,0.2311,0.2306,0.2439,0.2529,0.2607,0.2712,0.265,0.287,0.2921,0.2783,0.2796,0.2951,0.2971,0.2851,0,0,0,0,0,0,0.153,0.157,0.1591,0.1572,0.1599,0.1674,0.1756,0.1901,0.191,0.2145,0.2198,0.2383,0.2491,0.2626,0.2609,0.2638,0.2592,0.2915,0.2908,0.294,0.2958,0.2974,0.2857,0,0,0,0,0]},{"header":{"parameterUnit":"m.s-1","parameterCategory":2,"la1":30.2991,"la2":30.254,"lo1":-89.0895,"lo2":-89.0444,"dy":0.0017,"dx":0.0017,"nx":28,"ny":28,"refTime":"2025-07-24T03:00:00:Z","depth":"4","parameterNumber":3,"parameterNumberName":"V-component_of_CURRENTS"},"data":[0,0,0,0,0,0,0,0,0,0,0,0,0,0,0,0,0,0,0,0,0,0,0,0,0,0,0,0,0,0,0,0,0,0,0,0,0,0,0,0,0,0,0,0,0,0,0,0,0,0,0,0,0,0,0,0,0,0,0.009,0.009,0,0.0051,0.005,0.005,0.0013,0.0012,0.0012,0.0012,-0.008,-0.0082,-0.0084,0,0,0,0,0,0,0,0,0,0,0,0,0,0.0079,0.008,0.009,0.009,0.0089,0.0051,0.005,0.005,0.0013,0.0012,0.0012,0.0012,-0.0079,-0.0082,-0.0085,0,0,0,0,0,0,0,0,0,0,0,0,0,0.0065,0.008,0.009,0.0068,0.0065,0.0051,0.005,0.005,0.0013,0.0012,0.0012,0.0011,-0.0079,-0.0082,-0.0085,-0.0096,0,0,-0.0095,-0.0096,0,0,0,0,0,0,0,0,0.0066,0.0065,0.0071,0.0069,0.0067,0.0038,0.0013,-0.0001,0.0013,0.0031,0.0012,0.0011,-0.0044,-0.005,-0.0059,-0.0101,-0.0105,-0.0095,-0.0097,-0.0099,-0.01,0,0,0,0,0,0,0,0.0067,0.0066,0.0072,0.0071,0.0068,0.0042,0.0039,0.001,-0.0006,0.0029,0.0027,0.0026,-0.0046,-0.0055,-0.0061,-0.0106,-0.0095,-0.0098,-0.01,-0.0101,-0.0165,-0.0165,0,0,0,0,0,0,0.0079,0.0067,0.0074,0.0071,0.0067,0.0043,0.004,0.0046,-0.0005,-0.0012,0.0026,0.0024,-0.0049,-0.0057,-0.0065,-0.0068,-0.0099,-0.0102,-0.0104,-0.0165,-0.0165,-0.0165,0,0,0,0,0,0,0.0079,0.008,0.0075,0.0069,0.0067,0.0044,0.0051,0.0046,0.004,-0.0006,-0.0015,0.0026,-0.005,-0.006,-0.0082,-0.0072,-0.0103,-0.0106,-0.0166,-0.0165,-0.0165,-0.0083,0,0,0,0,0,0,0.0079,0.0081,0.0088,0.0071,0.0068,0.0077,0.0051,0.0045,0.0041,0.0038,-0.0009,-0.0018,-0.0051,-0.0076,-0.0085,-0.0077,-0.0109,-0.0166,-0.0166,-0.0165,-0.0086,-0.008,-0.0075,0,0,0,0,0,0.0079,0.0098,0.0089,0.0089,0.008,0.0078,0.0075,0.0054,0.0041,0.0046,0.0014,-0.0017,-0.008,-0.0078,-0.0088,-0.0082,-0.0166,-0.0166,-0.0165,-0.0089,-0.0081,-0.0075,0,0,0,0,0,0,0.0098,0.0096,0.0085,0.0102,0.0094,0.0073,0.0076,0.0061,0.004,0.0036,-0.001,-0.0021,-0.0039,-0.0071,-0.0069,-0.01,-0.0129,-0.0131,-0.0068,-0.0062,-0.0056,-0.0037,-0.0111,0,0,0,0,0,0.0106,0.0119,0.0108,0.0121,0.012,0.0098,0.0094,0.0083,0.0063,0.0054,0.0022,-0.0014,-0.0045,-0.006,-0.0092,-0.0106,-0.0144,-0.011,-0.0104,-0.0099,-0.0092,-0.0144,-0.0142,-0.0163,-0.0163,-0.0163,0,0,0.0117,0.0117,0.0123,0.0125,0.0116,0.0126,0.0095,0.0098,0.0105,0.0046,0.0044,0.0006,-0.0044,-0.0059,-0.007,-0.0084,-0.0113,-0.0099,-0.0093,-0.0089,-0.0143,-0.0141,-0.014,-0.0162,-0.0163,-0.0163,0,0,0.0147,0.0146,0.0165,0.0166,0.0162,0.0151,0.0156,0.0141,0.0132,0.0125,0.0083,0.0054,0.0012,-0.002,-0.0043,-0.0026,-0.0081,-0.004,0.0005,-0.0045,-0.0044,-0.0043,-0.0082,-0.0085,-0.0036,-0.0036,-0.0036,0,0.0158,0.0184,0.017,0.019,0.0199,0.0168,0.0192,0.018,0.016,0.0155,0.0135,0.0072,0.0031,0.0007,0.0013,-0.0012,-0.0047,-0.0014,-0.0037,-0.0037,-0.0038,-0.0078,-0.0083,-0.0032,-0.0033,-0.0033,-0.0033,0,0.0202,0.0223,0.0237,0.0253,0.0259,0.0276,0.0263,0.0263,0.0245,0.0227,0.0203,0.0146,0.011,0.0088,0.0056,0.0033,0.0008,-0.0023,-0.005,-0.0031,-0.0074,-0.0081,-0.0026,-0.0028,-0.0029,-0.003,0,0,0.0225,0.0261,0.0266,0.0289,0.0297,0.031,0.0323,0.0324,0.0334,0.0298,0.0302,0.0241,0.0207,0.0178,0.0128,0.0083,0.0049,0.0037,0.0032,0.0007,-0.0056,-0.0072,-0.0082,0.0012,0.0011,0.0011,-0.0081,0,0.0262,0.0317,0.0324,0.0376,0.0403,0.0393,0.0413,0.0409,0.0389,0.0383,0.0319,0.0301,0.0242,0.0228,0.0174,0.008,0.0034,0.0077,-0.0078,-0.0083,-0.0093,-0.0089,0.0008,-0.0086,-0.0088,-0.0089,-0.009,0,0.0299,0.0335,0.0394,0.0446,0.0458,0.0485,0.051,0.0524,0.0502,0.0486,0.0448,0.0398,0.0338,0.0282,0.0136,0.0166,0.0067,-0.0012,-0.0018,-0.0066,-0.0111,-0.0115,-0.0102,-0.0101,-0.01,-0.01,-0.0099,0,0.032,0.0383,0.0435,0.0453,0.0504,0.0531,0.0555,0.0554,0.0579,0.055,0.0561,0.0469,0.0437,0.03,0.0145,0.0139,-0.0024,-0.0057,-0.0166,-0.0168,-0.0161,-0.0162,-0.0164,-0.0164,-0.0163,-0.0163,-0.0163,0,0.0352,0.0396,0.0453,0.0484,0.0556,0.0575,0.0638,0.0639,0.0658,0.0694,0.062,0.0617,0.0439,0.033,0.0172,-0.0011,-0.0007,-0.0155,-0.0194,-0.0124,-0.0119,-0.0166,-0.0165,-0.0167,-0.0166,-0.0165,-0.0165,0,0.0362,0.0399,0.0466,0.0537,0.0568,0.0617,0.0707,0.0744,0.0758,0.0802,0.0804,0.0727,0.0583,0.0397,0.0172,0.0037,-0.0147,-0.0216,-0.0112,-0.0144,-0.0263,-0.0257,-0.0341,-0.0342,-0.0343,-0.0344,-0.0345,0,0.037,0.0404,0.0502,0.055,0.0588,0.0671,0.073,0.0781,0.0825,0.0865,0.0883,0.0786,0.0705,0.0396,0.0177,-0.0122,-0.0173,-0.0268,-0.028,-0.0252,-0.0282,-0.0274,-0.0266,-0.0347,-0.0347,-0.0347,-0.0348,0,0.0378,0.0412,0.0468,0.0571,0.0647,0.0739,0.0825,0.0872,0.0935,0.0963,0.0954,0.0815,0.0654,0.0403,0.0173,-0.0047,-0.0207,-0.0281,-0.0281,-0.0293,-0.026,-0.0287,-0.0278,-0.0352,-0.0351,-0.0351,-0.035,0,0.0378,0.0416,0.049,0.0585,0.0681,0.0771,0.0825,0.0892,0.095,0.1002,0.0993,0.084,0.0756,0.0441,0.0225,0.0011,-0.0054,-0.0135,-0.0143,-0.0142,-0.0066,0.0005,-0.0034,0,0,0,0,0,0.0373,0.0419,0.0499,0.0608,0.0703,0.0771,0.0873,0.0921,0.0997,0.1001,0.1006,0.0862,0.0575,0.0453,0.0236,0.0163,-0.012,-0.0103,-0.0225,-0.0374,-0.0369,-0.0318,0,0,0,0,0,0,0.0369,0.0436,0.0489,0.0607,0.0689,0.0803,0.0873,0.0927,0.0931,0.098,0.0832,0.08,0.0513,0.0709,0.0235,0.0172,0.0059,-0.0224,-0.023,-0.0377,-0.0372,-0.0369,-0.0314,0,0,0,0,0]}]]